Вернуться в каталог

ONEWEB-0318

АктивенСвязьPO
NORAD 49104·PAYLOAD·🇬🇧 United Kingdom

Запущен Aug 21, 2021 с Baikonur Cosmodrome

Loading…

Ближайшие Пролёты (ближайшие 24 часа)

TLE

СвежийSource: CelesTrak SupGP

Эпоха: Sep 14, 2026, 17:07 UTC

1 49104C 21075AF  26257.71338380 -.00000383  00000+0 -97203-3 0  2574
2 49104  87.9171 317.6725 0002032 103.7469   8.4845 13.18691638    17

Отслеживайте ONEWEB-0318 в реальном времени с AllMySat

Download on the App Store